GW5569 Weather Reports


Display with metric or nautical units.
time (UTC)temp
F
wind
direction
speed
MPH
gust
MPH
rain 1hr
in
rain 24hr
in
rain mn
in
humidity
%
barometer
mb
20260504204528 75 295 0.0 6.0 0.00 0.00 0.00 22 1010.1
20260504203032 75 122 1.0 5.0 0.00 0.00 0.00 22 1010.2
20260504201529 75 325 1.0 7.0 0.00 0.00 0.00 21 1010.1
20260504200029 75 286 2.0 6.0 0.00 0.00 0.00 31 1010.0
20260504194542 76 0 0.0 9.0 0.00 0.00 0.00 32 1010.4
20260504193030 75 294 1.0 5.0 0.00 0.00 0.00 31 1010.7
20260504191540 76 0 1.0 7.0 0.00 0.00 0.00 33 1010.8
20260504190032 75 305 0.0 6.0 0.00 0.00 0.00 32 1010.9
20260504184536 75 0 0.0 8.0 0.00 0.00 0.00 33 1011.1
20260504183030 74 198 1.0 9.0 0.00 0.00 0.00 33 1011.4
20260504181528 74 300 0.0 8.0 0.00 0.00 0.00 36 1011.6
20260504180042 74 0 1.0 6.0 0.00 0.00 0.00 26 1011.7
20260504174530 73 183 2.0 9.0 0.00 0.00 0.00 24 1011.8
20260504173029 73 177 1.0 9.0 0.00 0.00 0.00 35 1012.0
20260504171529 72 257 0.0 7.0 0.00 0.00 0.00 26 1012.0
20260504081531 39 0 0.0 0.0 0.00 0.00 0.00 72 1014.8
20260504044531 46 0 0.0 0.0 0.00 0.00 0.00 52 1014.4
20260504043031 46 0 0.0 0.0 0.00 0.00 0.00 51 1014.2
20260504041529 46 0 0.0 1.0 0.00 0.00 0.00 50 1014.0
20260504040032 46 0 0.0 0.0 0.00 0.00 0.00 50 1013.8
20260504034540 46 0 0.0 0.0 0.00 0.00 0.00 49 1013.8
20260504033031 47 0 0.0 1.0 0.00 0.00 0.00 48 1013.7
20260504031535 47 0 0.0 0.0 0.00 0.00 0.00 48 1013.6
20260504030038 47 0 0.0 1.0 0.00 0.00 0.00 47 1013.4
20260504024533 47 0 0.0 0.0 0.00 0.00 0.00 48 1013.5
20260504023031 48 0 0.0 0.0 0.00 0.00 0.00 46 1013.6
20260504021532 49 0 0.0 1.0 0.00 0.00 0.00 44 1013.6
20260504020035 49 0 0.0 1.0 0.00 0.00 0.00 43 1013.5
20260504014532 49 0 0.0 0.0 0.00 0.00 0.00 41 1013.5
20260504013031 50 0 0.0 1.0 0.00 0.00 0.00 41 1013.4
20260504011530 50 0 0.0 0.0 0.00 0.00 0.00 40 1013.3
20260504010038 51 0 0.0 0.0 0.00 0.00 0.00 38 1013.0
20260504004531 51 0 0.0 0.0 0.00 0.00 0.00 47 1012.8
20260504003029 52 0 0.0 0.0 0.00 0.00 0.00 34 1012.7
20260504001529 53 0 0.0 0.0 0.00 0.00 0.00 32 1012.5
20260504000034 55 0 0.0 0.0 0.00 0.00 0.00 30 1012.3
20260503234533 56 214 0.0 2.0 0.00 0.00 0.00 28 1012.0
20260503233033 57 0 0.0 4.0 0.00 0.00 0.00 26 1012.0
20260503231545 58 333 0.0 1.0 0.00 0.00 0.00 36 1011.9
20260503230034 59 0 0.0 8.0 0.00 0.00 0.00 24 1011.9
20260503224532 59 289 4.0 12.0 0.00 0.00 0.00 32 1011.8
20260503223035 59 298 2.0 11.0 0.00 0.00 0.00 22 1011.6
20260503221535 59 255 3.0 8.0 0.00 0.00 0.00 21 1011.6
20260503220037 60 314 1.0 7.0 0.00 0.00 0.00 31 1011.7
20260503214540 60 323 2.0 12.0 0.00 0.00 0.00 21 1011.7
20260503213051 61 314 1.0 5.0 0.00 0.00 0.00 31 1011.6
20260503211542 60 157 2.0 10.0 0.00 0.00 0.00 32 1011.6
20260503210035 60 345 2.0 10.0 0.00 0.00 0.00 32 1011.7